Home > Weather > Turku > Past weeks

Flag for Finland Past Weather in Turku, Finland — Yesterday and Last 2 Weeks

Now
73 °F

Passing clouds.


Feels Like: 76 °F
Forecast: 61 / 69 °F
Wind: 8 mph from Southwest

Location: Turku Airport

Current Time: Jul 30, 2016 at 6:02:28 PM

Latest Report: Jul 30, 2016 at 5:20 PM


Visibility: N/A

Pressure: 29.65 "Hg

Humidity: 61%

Dew Point: 59 °F

Location of TurkuLocation

Past Weather in Turku — Graph

°F

Turku Temperature Yesterday

Maximum temperature yesterday: 73 °F (at 1:50 PM)
Minimum temperature yesterday: 50 °F (at 3:20 AM)
Average temperature yesterday: 64 °F

High & Low Weather Summary for the Past Weeks

 TemperatureHumidityPressure
High79 °F (Jul 26, 1:50 PM)100% (Jul 15, 7:20 PM)30.15 "Hg (Jul 15, 7:20 PM)
Low48 °F (Jul 20, 5:20 AM)31% (Jul 19, 4:20 PM)29.62 "Hg (Jul 15, 6:50 PM)
Average64 °F73%29.95 "Hg
* Reported Jul 15 4:20 PM — Jul 30 4:50 PM, Turku, Weather by CustomWeather, © 2016

Note: Actual official high and low records may vary slightly from our data, if they occured in-between our weather recording intervals... More about our weather records

Advertising

Turku Weather History for the Previous 24 Hours

Scroll right to see more
 ConditionsComfort  
Time TempWeatherWind HumidityBarometerVisibility
4:50 PM
Sat, Jul 30
73 °FScattered clouds.9 mph57%29.68 "HgN/A
4:20 PM72 °FPassing clouds.10 mph61%29.68 "HgN/A
3:50 PM73 °FPassing clouds.8 mph53%29.68 "HgN/A
3:20 PM73 °FScattered clouds.8 mph57%29.68 "HgN/A
2:50 PM73 °FScattered clouds.8 mph61%29.68 "HgN/A
2:20 PM73 °FScattered clouds.7 mph57%29.68 "HgN/A
1:50 PM72 °FScattered clouds.7 mph61%29.71 "HgN/A
1:20 PM73 °FScattered clouds.8 mph57%29.71 "HgN/A
12:50 PM72 °FScattered clouds.7 mph65%29.71 "HgN/A
12:20 PM73 °FPassing clouds.7 mph57%29.71 "HgN/A
11:50 AM73 °FScattered clouds.7 mph57%29.71 "HgN/A
11:20 AM72 °FPassing clouds.6 mph61%29.71 "HgN/A
10:50 AM70 °FSunny.7 mph64%29.74 "Hg10 mi
10:20 AM70 °FPassing clouds.5 mph64%29.74 "HgN/A
9:50 AM70 °FPassing clouds.6 mph64%29.74 "HgN/A
9:20 AM68 °FPassing clouds.5 mph69%29.74 "HgN/A
8:50 AM66 °FPartly sunny.6 mph78%29.74 "HgN/A
8:20 AM66 °FPassing clouds.6 mph78%29.74 "HgN/A
7:50 AM63 °FPassing clouds.7 mph88%29.74 "HgN/A
7:20 AM61 °FSunny.2 mph94%29.77 "Hg10 mi
6:50 AM59 °FSunny.7 mph94%29.74 "Hg10 mi
6:20 AM55 °FSunny.3 mph94%29.74 "Hg10 mi
5:50 AM57 °FPassing clouds.3 mph94%29.77 "HgN/A
5:20 AM55 °FPassing clouds.3 mph94%29.77 "HgN/A
4:50 AM54 °FPassing clouds.3 mph94%29.77 "Hg4 mi
4:20 AM54 °FFog.2 mph94%29.77 "Hg1 mi
3:50 AM54 °FPassing clouds.1 mph94%29.77 "HgN/A
3:20 AM54 °FPassing clouds.3 mph94%29.77 "Hg4 mi
2:50 AM55 °FFog.1 mph94%29.77 "Hg1 mi
2:20 AM55 °FFog.2 mph100%29.80 "Hg0 mi
1:50 AM57 °FFog.3 mph94%29.80 "Hg1 mi
1:20 AM55 °FFog.2 mph94%29.80 "Hg1 mi
12:50 AM57 °FPassing clouds.1 mph94%29.80 "HgN/A
12:20 AM59 °FPassing clouds.3 mph94%29.80 "HgN/A
11:50 PM
Fri, Jul 29
59 °FPassing clouds.1 mph94%29.80 "HgN/A
11:20 PM61 °FPassing clouds.2 mph88%29.80 "HgN/A
10:50 PM64 °FPartly sunny.2 mph83%29.80 "HgN/A
10:20 PM64 °FPartly sunny.2 mph83%29.80 "HgN/A
9:50 PM66 °FScattered clouds.3 mph78%29.80 "HgN/A
9:20 PM66 °FPassing clouds.3 mph78%29.80 "HgN/A
8:50 PM68 °FPassing clouds.5 mph73%29.80 "HgN/A
8:20 PM70 °FPassing clouds.6 mph64%29.80 "HgN/A
7:50 PM72 °FPassing clouds.7 mph61%29.80 "HgN/A
7:20 PM72 °FPassing clouds.7 mph65%29.80 "HgN/A
6:50 PM72 °FPassing clouds.7 mph61%29.80 "HgN/A
6:20 PM73 °FPassing clouds.8 mph57%29.80 "HgN/A
Weather by CustomWeather, © 2016

See weather overviewHow to use our weather pages